| time (UTC) | temp F | wind direction | speed MPH | gust MPH | rain 1hr in | rain 24hr in | rain mn in | humidity % | barometer mb |
| 20260509020748 | 46 | 158 | 2.0 | 11.0 | 0.00 | 0.00 | 0.00 | 69 | 1015.5 |
| 20260509020237 | 46 | 203 | 4.0 | 11.0 | 0.00 | 0.00 | 0.00 | 67 | 1015.4 |
| 20260509015727 | 47 | 113 | 4.0 | 13.0 | 0.00 | 0.00 | 0.00 | 65 | 1015.7 |
| 20260509014707 | 49 | 135 | 4.0 | 11.0 | 0.00 | 0.00 | 0.00 | 59 | 1015.3 |
| 20260509014157 | 50 | 113 | 5.0 | 11.0 | 0.00 | 0.00 | 0.00 | 56 | 1014.7 |
| 20260509013647 | 50 | 113 | 2.0 | 8.0 | 0.00 | 0.00 | 0.00 | 56 | 1014.1 |
| 20260509013137 | 49 | 203 | 2.0 | 4.0 | 0.00 | 0.00 | 0.00 | 59 | 1014.5 |
| 20260509012626 | 49 | 135 | 1.0 | 4.0 | 0.00 | 0.00 | 0.00 | 59 | 1014.4 |
| 20260509011607 | 50 | 135 | 1.0 | 7.0 | 0.00 | 0.00 | 0.00 | 57 | 1013.8 |
| 20260509011056 | 50 | 113 | 2.0 | 13.0 | 0.00 | 0.00 | 0.00 | 57 | 1013.8 |
| 20260509010546 | 50 | 135 | 4.0 | 13.0 | 0.00 | 0.00 | 0.00 | 57 | 1013.5 |
| 20260509010037 | 50 | 90 | 2.0 | 8.0 | 0.00 | 0.00 | 0.00 | 56 | 1013.4 |
| 20260509005526 | 50 | 113 | 1.0 | 7.0 | 0.00 | 0.00 | 0.00 | 58 | 1013.5 |
| 20260509005016 | 49 | 158 | 4.0 | 13.0 | 0.00 | 0.00 | 0.00 | 59 | 1013.2 |
| 20260509004506 | 50 | 225 | 7.0 | 13.0 | 0.00 | 0.00 | 0.00 | 57 | 1012.8 |
| 20260509003956 | 52 | 180 | 2.0 | 9.0 | 0.00 | 0.00 | 0.00 | 57 | 1013.1 |
| 20260509002425 | 54 | 90 | 8.0 | 13.0 | 0.00 | 0.00 | 0.00 | 51 | 1011.8 |
| 20260509001915 | 54 | 90 | 6.0 | 14.0 | 0.00 | 0.00 | 0.00 | 51 | 1011.8 |
| 20260509000855 | 54 | 90 | 4.0 | 11.0 | 0.00 | 0.00 | 0.00 | 52 | 1011.7 |
| 20260509000345 | 54 | 90 | 8.0 | 13.0 | 0.00 | 0.00 | 0.00 | 50 | 1011.1 |
| 20260508234814 | 55 | 68 | 11.0 | 15.0 | 0.00 | 0.00 | 0.00 | 49 | 1010.6 |
| 20260508234304 | 55 | 90 | 8.0 | 15.0 | 0.00 | 0.00 | 0.00 | 48 | 1010.2 |
| 20260508233754 | 55 | 90 | 8.0 | 15.0 | 0.00 | 0.00 | 0.00 | 49 | 1009.9 |
| 20260508233244 | 55 | 68 | 8.0 | 14.0 | 0.00 | 0.00 | 0.00 | 49 | 1009.9 |
| 20260508232734 | 55 | 68 | 11.0 | 14.0 | 0.00 | 0.00 | 0.00 | 49 | 1009.7 |
| 20260508232224 | 55 | 68 | 7.0 | 14.0 | 0.00 | 0.00 | 0.00 | 49 | 1009.6 |
| 20260508231713 | 55 | 68 | 10.0 | 14.0 | 0.00 | 0.00 | 0.00 | 49 | 1009.6 |
| 20260508231204 | 55 | 90 | 7.0 | 14.0 | 0.00 | 0.00 | 0.00 | 48 | 1009.5 |
| 20260508230653 | 55 | 68 | 8.0 | 14.0 | 0.00 | 0.00 | 0.00 | 47 | 1009.2 |
| 20260508230143 | 55 | 90 | 8.0 | 15.0 | 0.00 | 0.00 | 0.00 | 48 | 1009.4 |
| 20260508225633 | 56 | 68 | 8.0 | 17.0 | 0.00 | 0.00 | 0.00 | 48 | 1008.9 |
| 20260508225123 | 56 | 68 | 10.0 | 17.0 | 0.00 | 0.00 | 0.00 | 47 | 1008.8 |
| 20260508224613 | 56 | 68 | 12.0 | 17.0 | 0.00 | 0.00 | 0.00 | 48 | 1008.7 |
| 20260508224102 | 56 | 68 | 11.0 | 18.0 | 0.00 | 0.00 | 0.00 | 47 | 1008.9 |
| 20260508223552 | 56 | 90 | 5.0 | 18.0 | 0.00 | 0.00 | 0.00 | 46 | 1008.9 |
| 20260508223042 | 56 | 90 | 11.0 | 16.0 | 0.00 | 0.00 | 0.00 | 46 | 1008.9 |
| 20260508222532 | 56 | 68 | 9.0 | 20.0 | 0.00 | 0.00 | 0.00 | 46 | 1008.6 |
| 20260508221512 | 57 | 68 | 11.0 | 20.0 | 0.00 | 0.00 | 0.00 | 45 | 1008.7 |
| 20260508221002 | 56 | 45 | 8.0 | 16.0 | 0.00 | 0.00 | 0.00 | 46 | 1008.5 |
| 20260508220451 | 57 | 68 | 9.0 | 16.0 | 0.00 | 0.00 | 0.00 | 46 | 1008.5 |
| 20260508215432 | 57 | 113 | 9.0 | 14.0 | 0.00 | 0.00 | 0.00 | 44 | 1008.6 |
| 20260508214412 | 57 | 68 | 7.0 | 15.0 | 0.00 | 0.00 | 0.00 | 44 | 1008.2 |
| 20260508213901 | 58 | 90 | 12.0 | 17.0 | 0.00 | 0.00 | 0.00 | 43 | 1008.0 |
| 20260508213351 | 58 | 68 | 11.0 | 17.0 | 0.00 | 0.00 | 0.00 | 44 | 1008.3 |
| 20260508212841 | 58 | 90 | 11.0 | 17.0 | 0.00 | 0.00 | 0.00 | 42 | 1008.2 |
| 20260508212331 | 58 | 68 | 10.0 | 15.0 | 0.00 | 0.00 | 0.00 | 43 | 1008.5 |
| 20260508211822 | 59 | 68 | 11.0 | 15.0 | 0.00 | 0.00 | 0.00 | 42 | 1007.9 |
| 20260508211311 | 59 | 68 | 10.0 | 14.0 | 0.00 | 0.00 | 0.00 | 42 | 1008.2 |
| 20260508210802 | 59 | 68 | 11.0 | 16.0 | 0.00 | 0.00 | 0.00 | 42 | 1008.2 |
| 20260508210250 | 59 | 68 | 8.0 | 16.0 | 0.00 | 0.00 | 0.00 | 41 | 1008.3 |
| 20260508205741 | 59 | 68 | 8.0 | 15.0 | 0.00 | 0.00 | 0.00 | 42 | 1008.2 |
| 20260508205230 | 60 | 90 | 8.0 | 15.0 | 0.00 | 0.00 | 0.00 | 41 | 1008.2 |
| 20260508204720 | 60 | 68 | 9.0 | 15.0 | 0.00 | 0.00 | 0.00 | 40 | 1008.3 |
| 20260508204210 | 60 | 68 | 9.0 | 15.0 | 0.00 | 0.00 | 0.00 | 40 | 1008.3 |
| 20260508203700 | 60 | 68 | 11.0 | 14.0 | 0.00 | 0.00 | 0.00 | 40 | 1008.4 |
| 20260508203150 | 60 | 68 | 10.0 | 16.0 | 0.00 | 0.00 | 0.00 | 40 | 1008.1 |
| 20260508202639 | 60 | 90 | 10.0 | 18.0 | 0.00 | 0.00 | 0.00 | 39 | 1008.3 |
| 20260508202130 | 60 | 45 | 9.0 | 20.0 | 0.00 | 0.00 | 0.00 | 40 | 1008.3 |
| 20260508201620 | 60 | 68 | 9.0 | 20.0 | 0.00 | 0.00 | 0.00 | 39 | 1008.2 |
| 20260508200559 | 60 | 90 | 13.0 | 22.0 | 0.00 | 0.00 | 0.00 | 39 | 1008.2 |
| 20260508200049 | 60 | 68 | 15.0 | 22.0 | 0.00 | 0.00 | 0.00 | 39 | 1008.1 |
| 20260508195539 | 61 | 68 | 11.0 | 21.0 | 0.00 | 0.00 | 0.00 | 39 | 1008.2 |
| 20260508195029 | 61 | 68 | 11.0 | 18.0 | 0.00 | 0.00 | 0.00 | 39 | 1008.0 |
| 20260508194519 | 61 | 68 | 8.0 | 17.0 | 0.00 | 0.00 | 0.00 | 38 | 1008.1 |
| 20260508192948 | 61 | 45 | 9.0 | 17.0 | 0.00 | 0.00 | 0.00 | 39 | 1008.3 |
| 20260508192438 | 62 | 68 | 10.0 | 17.0 | 0.00 | 0.00 | 0.00 | 38 | 1008.0 |
| 20260508191928 | 62 | 68 | 10.0 | 17.0 | 0.00 | 0.00 | 0.00 | 39 | 1008.1 |
| 20260508191418 | 62 | 90 | 9.0 | 16.0 | 0.00 | 0.00 | 0.00 | 37 | 1008.0 |
| 20260508190909 | 62 | 45 | 7.0 | 17.0 | 0.00 | 0.00 | 0.00 | 38 | 1008.4 |
| 20260508185338 | 61 | 68 | 8.0 | 18.0 | 0.00 | 0.00 | 0.00 | 39 | 1008.0 |
| 20260508184317 | 61 | 68 | 15.0 | 20.0 | 0.00 | 0.00 | 0.00 | 37 | 1008.1 |
| 20260508183808 | 61 | 90 | 10.0 | 18.0 | 0.00 | 0.00 | 0.00 | 38 | 1008.2 |
| 20260508182748 | 61 | 68 | 11.0 | 17.0 | 0.00 | 0.00 | 0.00 | 38 | 1008.3 |
| 20260508182238 | 61 | 68 | 9.0 | 18.0 | 0.00 | 0.00 | 0.00 | 37 | 1008.5 |
| 20260508181727 | 61 | 68 | 11.0 | 18.0 | 0.00 | 0.00 | 0.00 | 38 | 1008.3 |
| 20260508181217 | 62 | 90 | 9.0 | 22.0 | 0.00 | 0.00 | 0.00 | 38 | 1008.5 |
| 20260508180706 | 61 | 113 | 9.0 | 22.0 | 0.00 | 0.00 | 0.00 | 38 | 1008.6 |
| 20260508180157 | 62 | 68 | 8.0 | 17.0 | 0.00 | 0.00 | 0.00 | 39 | 1008.6 |
| 20260508175646 | 62 | 45 | 8.0 | 17.0 | 0.00 | 0.00 | 0.00 | 37 | 1008.9 |
| 20260508175136 | 62 | 68 | 10.0 | 20.0 | 0.00 | 0.00 | 0.00 | 37 | 1008.8 |
| 20260508174626 | 61 | 68 | 11.0 | 21.0 | 0.00 | 0.00 | 0.00 | 37 | 1009.0 |
| 20260508174116 | 61 | 68 | 12.0 | 21.0 | 0.00 | 0.00 | 0.00 | 37 | 1008.8 |
| 20260508173607 | 61 | 68 | 15.0 | 20.0 | 0.00 | 0.00 | 0.00 | 38 | 1009.0 |
| 20260508173056 | 61 | 68 | 10.0 | 17.0 | 0.00 | 0.00 | 0.00 | 37 | 1009.4 |
| 20260508172547 | 61 | 90 | 9.0 | 18.0 | 0.00 | 0.00 | 0.00 | 38 | 1009.2 |
| 20260508172036 | 61 | 68 | 14.0 | 18.0 | 0.00 | 0.00 | 0.00 | 38 | 1009.5 |
| 20260508171527 | 61 | 68 | 12.0 | 17.0 | 0.00 | 0.00 | 0.00 | 39 | 1009.6 |
| 20260508171016 | 60 | 68 | 12.0 | 17.0 | 0.00 | 0.00 | 0.00 | 37 | 1009.8 |
| 20260508170505 | 60 | 68 | 15.0 | 17.0 | 0.00 | 0.00 | 0.00 | 39 | 1009.9 |
| 20260508165956 | 60 | 68 | 11.0 | 17.0 | 0.00 | 0.00 | 0.00 | 39 | 1010.0 |
| 20260508165445 | 61 | 90 | 11.0 | 15.0 | 0.00 | 0.00 | 0.00 | 38 | 1010.0 |
| 20260508164935 | 60 | 68 | 11.0 | 15.0 | 0.00 | 0.00 | 0.00 | 38 | 1010.3 |
| 20260508164425 | 61 | 68 | 10.0 | 15.0 | 0.00 | 0.00 | 0.00 | 37 | 1010.4 |
| 20260508163914 | 60 | 68 | 9.0 | 15.0 | 0.00 | 0.00 | 0.00 | 38 | 1010.5 |
| 20260508163405 | 61 | 68 | 5.0 | 11.0 | 0.00 | 0.00 | 0.00 | 38 | 1010.7 |
| 20260508162857 | 61 | 68 | 8.0 | 11.0 | 0.00 | 0.00 | 0.00 | 38 | 1010.5 |
| 20260508162345 | 61 | 45 | 5.0 | 11.0 | 0.00 | 0.00 | 0.00 | 38 | 1010.8 |
| 20260508161835 | 61 | 45 | 8.0 | 11.0 | 0.00 | 0.00 | 0.00 | 37 | 1011.0 |
| 20260508161325 | 62 | 68 | 8.0 | 11.0 | 0.00 | 0.00 | 0.00 | 38 | 1011.1 |
| 20260508160814 | 61 | 68 | 6.0 | 9.0 | 0.00 | 0.00 | 0.00 | 37 | 1011.1 |
| 20260508155754 | 61 | 68 | 5.0 | 8.0 | 0.00 | 0.00 | 0.00 | 36 | 1011.4 |
| 20260508154734 | 61 | 293 | 2.0 | 4.0 | 0.00 | 0.00 | 0.00 | 40 | 1011.3 |
| 20260508154224 | 60 | 293 | 2.0 | 4.0 | 0.00 | 0.00 | 0.00 | 44 | 1011.5 |
| 20260508153203 | 59 | 315 | 1.0 | 4.0 | 0.00 | 0.00 | 0.00 | 40 | 1011.7 |
| 20260508152654 | 59 | 270 | 2.0 | 4.0 | 0.00 | 0.00 | 0.00 | 43 | 1011.9 |
| 20260508152142 | 60 | 270 | 2.0 | 4.0 | 0.00 | 0.00 | 0.00 | 42 | 1011.7 |
| 20260508151633 | 60 | 293 | 2.0 | 4.0 | 0.00 | 0.00 | 0.00 | 39 | 1011.9 |
| 20260508150613 | 58 | 293 | 1.0 | 4.0 | 0.00 | 0.00 | 0.00 | 40 | 1012.2 |
| 20260508145552 | 56 | 315 | 2.0 | 4.0 | 0.00 | 0.00 | 0.00 | 42 | 1012.2 |
| 20260508145042 | 57 | 0 | 2.0 | 4.0 | 0.00 | 0.00 | 0.00 | 41 | 1012.4 |
| 20260508144022 | 55 | 293 | 1.0 | 4.0 | 0.00 | 0.00 | 0.00 | 45 | 1012.7 |
| 20260508143002 | 55 | 315 | 2.0 | 4.0 | 0.00 | 0.00 | 0.00 | 44 | 1012.8 |
| 20260508142452 | 57 | 338 | 1.0 | 4.0 | 0.00 | 0.00 | 0.00 | 40 | 1012.9 |
| 20260508141942 | 57 | 23 | 0.0 | 4.0 | 0.00 | 0.00 | 0.00 | 41 | 1012.8 |
| 20260508141431 | 55 | 338 | 1.0 | 4.0 | 0.00 | 0.00 | 0.00 | 48 | 1012.9 |
| 20260508140921 | 54 | 293 | 0.0 | 4.0 | 0.00 | 0.00 | 0.00 | 50 | 1013.1 |
| 20260508140411 | 52 | 293 | 2.0 | 4.0 | 0.00 | 0.00 | 0.00 | 54 | 1013.2 |
| 20260508135901 | 52 | 293 | 1.0 | 4.0 | 0.00 | 0.00 | 0.00 | 54 | 1013.2 |
| 20260508135353 | 51 | 293 | 4.0 | 4.0 | 0.00 | 0.00 | 0.00 | 53 | 1013.4 |
| 20260508134841 | 52 | 338 | 2.0 | 6.0 | 0.00 | 0.00 | 0.00 | 50 | 1013.4 |
| 20260508134332 | 49 | 293 | 4.0 | 6.0 | 0.00 | 0.00 | 0.00 | 56 | 1013.3 |
| 20260508133821 | 50 | 315 | 2.0 | 6.0 | 0.00 | 0.00 | 0.00 | 55 | 1013.3 |
| 20260508133311 | 50 | 315 | 3.0 | 6.0 | 0.00 | 0.00 | 0.00 | 55 | 1013.2 |
| 20260508132801 | 49 | 293 | 1.0 | 6.0 | 0.00 | 0.00 | 0.00 | 55 | 1013.3 |
| 20260508131741 | 49 | 225 | 2.0 | 6.0 | 0.00 | 0.00 | 0.00 | 59 | 1013.3 |
| 20260508131231 | 47 | 338 | 4.0 | 6.0 | 0.00 | 0.00 | 0.00 | 60 | 1013.1 |
| 20260508130721 | 48 | 338 | 0.0 | 4.0 | 0.00 | 0.00 | 0.00 | 58 | 1013.3 |
| 20260508130210 | 46 | 338 | 2.0 | 4.0 | 0.00 | 0.00 | 0.00 | 58 | 1013.0 |
| 20260508125151 | 45 | 23 | 4.0 | 7.0 | 0.00 | 0.00 | 0.00 | 61 | 1013.5 |
| 20260508124640 | 45 | 338 | 2.0 | 4.0 | 0.00 | 0.00 | 0.00 | 63 | 1013.6 |
| 20260508124130 | 45 | 338 | 2.0 | 4.0 | 0.00 | 0.00 | 0.00 | 66 | 1013.3 |
| 20260508123619 | 46 | 23 | 0.0 | 2.0 | 0.00 | 0.00 | 0.00 | 63 | 1013.3 |
| 20260508123110 | 46 | 0 | 1.0 | 4.0 | 0.00 | 0.00 | 0.00 | 61 | 1013.3 |
| 20260508122559 | 43 | 0 | 0.0 | 4.0 | 0.00 | 0.00 | 0.00 | 67 | 1013.2 |
| 20260508122049 | 43 | 23 | 1.0 | 4.0 | 0.00 | 0.00 | 0.00 | 71 | 1013.4 |
| 20260508121540 | 42 | 90 | 2.0 | 4.0 | 0.00 | 0.00 | 0.00 | 72 | 1013.2 |
| 20260508121029 | 41 | 68 | 3.0 | 7.0 | 0.00 | 0.00 | 0.00 | 75 | 1013.3 |
| 20260508120519 | 40 | 68 | 4.0 | 7.0 | 0.00 | 0.00 | 0.00 | 77 | 1013.3 |
| 20260508120009 | 41 | 68 | 4.0 | 7.0 | 0.00 | 0.00 | 0.00 | 78 | 1013.3 |
| 20260508115459 | 41 | 23 | 4.0 | 8.0 | 0.00 | 0.00 | 0.00 | 79 | 1013.6 |
| 20260508114948 | 40 | 338 | 5.0 | 8.0 | 0.00 | 0.00 | 0.00 | 79 | 1013.7 |
| 20260508113929 | 38 | 113 | 0.0 | 4.0 | 0.00 | 0.00 | 0.00 | 86 | 1013.9 |
| 20260508113418 | 36 | 113 | 1.0 | 4.0 | 0.00 | 0.00 | 0.00 | 86 | 1013.7 |
| 20260508112909 | 36 | 135 | 2.0 | 4.0 | 0.00 | 0.00 | 0.00 | 87 | 1013.6 |
| 20260508112358 | 35 | 158 | 1.0 | 4.0 | 0.00 | 0.00 | 0.00 | 86 | 1013.8 |
| 20260508111848 | 35 | 158 | 2.0 | 4.0 | 0.00 | 0.00 | 0.00 | 86 | 1013.6 |
| 20260508111338 | 35 | 135 | 2.0 | 6.0 | 0.00 | 0.00 | 0.00 | 86 | 1013.6 |
| 20260508110827 | 35 | 135 | 3.0 | 6.0 | 0.00 | 0.00 | 0.00 | 86 | 1013.5 |
| 20260508104747 | 36 | 135 | 3.0 | 4.0 | 0.00 | 0.00 | 0.00 | 83 | 1013.2 |
| 20260508104237 | 36 | 135 | 2.0 | 6.0 | 0.00 | 0.00 | 0.00 | 80 | 1013.4 |
| 20260508103726 | 40 | 0 | 2.0 | 6.0 | 0.00 | 0.00 | 0.00 | 80 | 1012.9 |
| 20260508103217 | 39 | 23 | 3.0 | 6.0 | 0.00 | 0.00 | 0.00 | 81 | 1013.4 |
| 20260508102706 | 38 | 338 | 2.0 | 6.0 | 0.00 | 0.00 | 0.00 | 84 | 1013.2 |
| 20260508101647 | 37 | 180 | 1.0 | 4.0 | 0.00 | 0.00 | 0.00 | 83 | 1013.1 |
| 20260508101138 | 38 | 180 | 1.0 | 6.0 | 0.00 | 0.00 | 0.00 | 81 | 1012.9 |
| 20260508100626 | 38 | 225 | 2.0 | 8.0 | 0.00 | 0.00 | 0.00 | 78 | 1012.9 |
| 20260508100117 | 40 | 293 | 5.0 | 8.0 | 0.00 | 0.00 | 0.00 | 78 | 1012.8 |
| 20260508095606 | 40 | 293 | 4.0 | 7.0 | 0.00 | 0.00 | 0.00 | 79 | 1012.8 |
| 20260508094035 | 40 | 23 | 4.0 | 7.0 | 0.00 | 0.00 | 0.00 | 83 | 1012.1 |
| 20260508093526 | 41 | 23 | 3.0 | 7.0 | 0.00 | 0.00 | 0.00 | 83 | 1012.2 |
| 20260508093015 | 41 | 0 | 2.0 | 6.0 | 0.00 | 0.00 | 0.00 | 84 | 1012.1 |
| 20260508092505 | 41 | 0 | 2.0 | 6.0 | 0.00 | 0.00 | 0.00 | 83 | 1011.9 |
| 20260508091955 | 40 | 0 | 4.0 | 6.0 | 0.00 | 0.00 | 0.00 | 84 | 1012.0 |
| 20260508091445 | 37 | 135 | 2.0 | 6.0 | 0.00 | 0.00 | 0.00 | 83 | 1012.1 |
| 20260508090935 | 38 | 135 | 3.0 | 6.0 | 0.00 | 0.00 | 0.00 | 81 | 1011.9 |
| 20260508090425 | 37 | 135 | 1.0 | 4.0 | 0.00 | 0.00 | 0.00 | 80 | 1012.1 |
| 20260508085922 | 38 | 135 | 2.0 | 4.0 | 0.00 | 0.00 | 0.00 | 81 | 1012.0 |
| 20260508085404 | 38 | 158 | 2.0 | 4.0 | 0.00 | 0.00 | 0.00 | 80 | 1012.0 |
| 20260508084854 | 38 | 158 | 1.0 | 4.0 | 0.00 | 0.00 | 0.00 | 77 | 1011.8 |
| 20260508084344 | 38 | 113 | 2.0 | 4.0 | 0.00 | 0.00 | 0.00 | 76 | 1011.8 |
| 20260508083834 | 37 | 135 | 3.0 | 4.0 | 0.00 | 0.00 | 0.00 | 72 | 1011.7 |
| 20260508083324 | 38 | 135 | 4.0 | 4.0 | 0.00 | 0.00 | 0.00 | 72 | 1011.7 |
| 20260508082814 | 37 | 135 | 3.0 | 4.0 | 0.00 | 0.00 | 0.00 | 71 | 1011.7 |
| 20260508081754 | 38 | 135 | 3.0 | 4.0 | 0.00 | 0.00 | 0.00 | 67 | 1011.5 |
| 20260508081243 | 38 | 135 | 2.0 | 4.0 | 0.00 | 0.00 | 0.00 | 66 | 1011.6 |
| 20260508080733 | 38 | 135 | 4.0 | 7.0 | 0.00 | 0.00 | 0.00 | 65 | 1011.5 |
| 20260508080222 | 38 | 135 | 4.0 | 7.0 | 0.00 | 0.00 | 0.00 | 65 | 1011.8 |
| 20260508075713 | 38 | 158 | 4.0 | 4.0 | 0.00 | 0.00 | 0.00 | 68 | 1011.6 |
| 20260508075203 | 38 | 135 | 3.0 | 6.0 | 0.00 | 0.00 | 0.00 | 65 | 1011.4 |
| 20260508074653 | 39 | 135 | 3.0 | 6.0 | 0.00 | 0.00 | 0.00 | 64 | 1011.5 |
| 20260508074142 | 38 | 135 | 5.0 | 6.0 | 0.00 | 0.00 | 0.00 | 65 | 1011.7 |
| 20260508073633 | 39 | 135 | 3.0 | 7.0 | 0.00 | 0.00 | 0.00 | 63 | 1011.4 |
| 20260508073122 | 38 | 135 | 4.0 | 7.0 | 0.00 | 0.00 | 0.00 | 66 | 1011.5 |
| 20260508072613 | 38 | 158 | 4.0 | 6.0 | 0.00 | 0.00 | 0.00 | 66 | 1011.5 |
| 20260508072102 | 38 | 158 | 4.0 | 4.0 | 0.00 | 0.00 | 0.00 | 66 | 1011.6 |
| 20260508071042 | 39 | 135 | 3.0 | 6.0 | 0.00 | 0.00 | 0.00 | 65 | 1011.3 |
| 20260508070538 | 39 | 158 | 2.0 | 6.0 | 0.00 | 0.00 | 0.00 | 66 | 1011.2 |
| 20260508065512 | 39 | 135 | 4.0 | 4.0 | 0.00 | 0.00 | 0.00 | 67 | 1011.3 |
| 20260508065001 | 40 | 158 | 2.0 | 6.0 | 0.00 | 0.00 | 0.00 | 65 | 1011.2 |
| 20260508064451 | 39 | 158 | 3.0 | 6.0 | 0.00 | 0.00 | 0.00 | 67 | 1011.3 |
| 20260508063942 | 40 | 158 | 4.0 | 6.0 | 0.00 | 0.00 | 0.00 | 64 | 1011.4 |
| 20260508063431 | 40 | 135 | 3.0 | 6.0 | 0.00 | 0.00 | 0.00 | 64 | 1011.3 |
| 20260508062923 | 41 | 135 | 2.0 | 6.0 | 0.00 | 0.00 | 0.00 | 66 | 1011.3 |
| 20260508061649 | 44 | 135 | 2.0 | 0.0 | 0.00 | 0.00 | 0.00 | 61 | 1011.4 |
| 20260508061255 | 43 | 135 | 2.0 | 6.0 | 0.00 | 0.00 | 0.00 | 60 | 1011.3 |
| 20260508055725 | 45 | 158 | 2.0 | 4.0 | 0.00 | 0.00 | 0.00 | 50 | 1011.0 |
| 20260508055215 | 43 | 158 | 2.0 | 4.0 | 0.00 | 0.00 | 0.00 | 54 | 1010.6 |
| 20260508054705 | 43 | 158 | 2.0 | 4.0 | 0.00 | 0.00 | 0.00 | 55 | 1011.0 |
| 20260508054154 | 42 | 158 | 4.0 | 6.0 | 0.00 | 0.00 | 0.00 | 57 | 1010.8 |
| 20260508053644 | 42 | 135 | 4.0 | 6.0 | 0.00 | 0.00 | 0.00 | 61 | 1010.7 |
| 20260508053134 | 41 | 135 | 4.0 | 4.0 | 0.00 | 0.00 | 0.00 | 68 | 1011.0 |
| 20260508052624 | 42 | 135 | 2.0 | 4.0 | 0.00 | 0.00 | 0.00 | 67 | 1011.5 |
| 20260508052114 | 42 | 158 | 4.0 | 4.0 | 0.00 | 0.00 | 0.00 | 71 | 1011.3 |
| 20260508051604 | 43 | 135 | 2.0 | 4.0 | 0.00 | 0.00 | 0.00 | 72 | 1011.4 |
| 20260508051054 | 43 | 135 | 1.0 | 4.0 | 0.00 | 0.00 | 0.00 | 72 | 1011.5 |
| 20260508050544 | 43 | 135 | 2.0 | 4.0 | 0.00 | 0.00 | 0.00 | 71 | 1011.4 |
| 20260508045013 | 43 | 158 | 2.0 | 6.0 | 0.00 | 0.00 | 0.00 | 71 | 1011.2 |
| 20260508044515 | 43 | 158 | 3.0 | 4.0 | 0.00 | 0.00 | 0.00 | 73 | 1011.2 |
| 20260508043953 | 44 | 135 | 2.0 | 4.0 | 0.00 | 0.00 | 0.00 | 70 | 1011.3 |
| 20260508043444 | 45 | 135 | 2.0 | 4.0 | 0.00 | 0.00 | 0.00 | 70 | 1011.3 |
| 20260508042423 | 47 | 135 | 2.0 | 2.0 | 0.00 | 0.00 | 0.00 | 69 | 1011.4 |
| 20260508041913 | 47 | 158 | 2.0 | 4.0 | 0.00 | 0.00 | 0.00 | 68 | 1011.3 |
| 20260508041403 | 45 | 158 | 3.0 | 4.0 | 0.00 | 0.00 | 0.00 | 69 | 1011.2 |
| 20260508040853 | 46 | 158 | 3.0 | 4.0 | 0.00 | 0.00 | 0.00 | 68 | 1010.6 |
| 20260508040343 | 47 | 135 | 2.0 | 4.0 | 0.00 | 0.00 | 0.00 | 67 | 1010.8 |
| 20260508035833 | 46 | 135 | 2.0 | 4.0 | 0.00 | 0.00 | 0.00 | 68 | 1011.2 |
| 20260508035323 | 46 | 113 | 2.0 | 4.0 | 0.00 | 0.00 | 0.00 | 67 | 1010.8 |
| 20260508034813 | 46 | 135 | 2.0 | 4.0 | 0.00 | 0.00 | 0.00 | 67 | 1010.7 |
| 20260508034302 | 45 | 135 | 0.0 | 4.0 | 0.00 | 0.00 | 0.00 | 67 | 1010.6 |
| 20260508033752 | 44 | 158 | 0.0 | 4.0 | 0.00 | 0.00 | 0.00 | 67 | 1011.1 |
| 20260508033242 | 44 | 158 | 2.0 | 6.0 | 0.00 | 0.00 | 0.00 | 69 | 1010.8 |
| 20260508032732 | 45 | 158 | 2.0 | 6.0 | 0.00 | 0.00 | 0.00 | 68 | 1010.7 |
| 20260508031202 | 44 | 158 | 1.0 | 4.0 | 0.00 | 0.00 | 0.00 | 71 | 1010.6 |
| 20260508030652 | 45 | 135 | 2.0 | 2.0 | 0.00 | 0.00 | 0.00 | 68 | 1010.6 |
| 20260508030141 | 46 | 135 | 2.0 | 2.0 | 0.00 | 0.00 | 0.00 | 68 | 1010.7 |
| 20260508025631 | 47 | 135 | 1.0 | 2.0 | 0.00 | 0.00 | 0.00 | 66 | 1010.8 |
| 20260508025121 | 46 | 135 | 2.0 | 4.0 | 0.00 | 0.00 | 0.00 | 65 | 1010.4 |
| 20260508024611 | 47 | 135 | 2.0 | 4.0 | 0.00 | 0.00 | 0.00 | 64 | 1010.6 |
| 20260508024102 | 46 | 90 | 2.0 | 4.0 | 0.00 | 0.00 | 0.00 | 63 | 1010.4 |
| 20260508023550 | 46 | 135 | 1.0 | 4.0 | 0.00 | 0.00 | 0.00 | 59 | 1010.3 |
| 20260508023043 | 46 | 135 | 2.0 | 4.0 | 0.00 | 0.00 | 0.00 | 59 | 1010.2 |
| 20260508022530 | 46 | 158 | 3.0 | 4.0 | 0.00 | 0.00 | 0.00 | 59 | 1010.4 |